Location: Limerick
(52.6800°N, 8.6400°W)
Time: 14:09:14
(UTC+01:00)

Sapphire - Visible Passes

Search period start: 30 July 2014 00:00
Search period end: 09 August 2014 00:00
Orbit: 787 x 796 km, 67.1° (Epoch: 29 July)

Date Brightness Start Highest point End Pass type
(mag) Time Alt. Az. Time Alt. Az. Time Alt. Az.
30 Jul ? 00:19:35 11° ESE 00:20:07 11° ESE 00:21:39 10° E visible
30 Jul ? 02:00:18 35° S 02:02:26 58° ESE 02:07:46 10° NE visible
30 Jul ? 03:41:05 10° WSW 03:46:08 38° NW 03:51:13 10° NNE visible
31 Jul ? 01:30:25 35° SSE 01:32:04 46° ESE 01:37:14 10° NE visible
31 Jul ? 03:11:08 14° WSW 03:15:34 46° NW 03:20:48 10° NNE visible
31 Jul ? 04:56:19 10° WNW 05:00:20 20° NNW 05:04:22 10° NNE visible
01 Aug ? 01:00:28 31° SE 01:01:45 36° ESE 01:06:40 10° NE visible
01 Aug ? 02:41:11 19° WSW 02:45:02 55° NW 02:50:23 10° NE visible
01 Aug ? 04:25:25 10° WNW 04:29:37 22° NNW 04:33:50 10° NNE visible
02 Aug ? 00:30:29 26° SE 00:31:28 28° ESE 00:36:01 10° NE visible
02 Aug ? 02:11:12 24° SW 02:14:31 68° NW 02:19:58 10° NE visible
02 Aug ? 03:54:31 10° WNW 03:58:55 25° NNW 04:03:21 10° NNE visible
03 Aug ? 00:00:26 21° ESE 00:01:13 22° ESE 00:05:15 10° ENE visible
03 Aug ? 01:41:09 29° SW 01:44:03 83° NW 01:49:31 10° NE visible
03 Aug ? 03:23:38 10° W 03:28:15 28° NNW 03:32:54 10° NNE visible
03 Aug ? 05:09:50 10° NW 05:13:29 18° N 05:17:08 10° NE visible
03 Aug ? 23:30:19 16° ESE 23:31:00 17° ESE 23:34:19 10° ENE visible
04 Aug ? 01:11:02 32° SSW 01:13:37 80° SE 01:19:04 10° NE visible
04 Aug ? 02:52:48 10° W 02:57:37 31° NNW 03:02:27 10° NNE visible
04 Aug ? 04:39:01 10° NW 04:42:43 18° N 04:46:26 10° NE visible
04 Aug ? 23:00:07 12° ESE 23:00:49 12° ESE 23:03:00 10° ENE visible
05 Aug ? 00:40:49 33° SSW 00:43:13 63° ESE 00:48:35 10° NE visible
05 Aug ? 02:22:00 10° WSW 02:27:00 36° NW 02:32:01 10° NNE visible
05 Aug ? 04:08:10 10° NW 04:11:58 19° N 04:15:47 10° NE visible
06 Aug ? 00:10:30 30° S 00:12:51 50° ESE 00:18:05 10° NE visible
06 Aug ? 01:51:15 10° WSW 01:56:25 43° NW 02:01:36 10° NNE visible
06 Aug ? 03:37:17 10° WNW 03:41:14 20° NNW 03:45:12 10° NNE visible
06 Aug ? 05:22:46 10° NNW 05:26:39 19° NNE 05:30:32 10° ENE visible
06 Aug ? 23:40:02 25° SSE 23:42:31 39° ESE 23:47:31 10° NE visible
07 Aug ? 01:20:43 11° WSW 01:25:52 52° NW 01:31:11 10° NE visible
07 Aug ? 03:06:22 10° WNW 03:10:31 22° NNW 03:14:40 10° NNE visible
07 Aug ? 04:52:09 10° NW 04:55:54 18° N 04:59:39 10° NE visible
07 Aug ? 23:09:21 19° SSE 23:12:13 30° ESE 23:16:54 10° NE visible
08 Aug ? 00:50:00 10° SW 00:55:21 63° NW 01:00:46 10° NE visible
08 Aug ? 02:35:28 10° WNW 02:39:49 24° NNW 02:44:10 10° NNE visible
08 Aug ? 04:21:29 10° NW 04:25:09 18° N 04:28:49 10° NE visible
08 Aug ? 22:38:19 12° SSE 22:41:57 24° ESE 22:46:11 10° ENE visible
